Tracking 25372 objects as of 23-Jan-2022
HD Live streaming from Space Station
objects crossing your sky now

STARLINK-2038

Track STARLINK-2038 now!
10-day predictions
STARLINK-2038 is classified as:


NORAD ID: 47654
Int'l Code: 2021-012AL
Perigee: 553.3 km
Apogee: 555.4 km
Inclination: 53.1 °
Period: 95.6 minutes
Semi major axis: 6925 km
RCS: Unknown
Launch date: February 16, 2021
Source: United States (US)
Launch site: AIR FORCE EASTERN TEST RANGE (AFETR)
aabbcc
Your satellite tracking list
Your tracking list is empty




NASA's NSSDC Master Catalog

Two Line Element Set (TLE):
1 47654U 21012AL  22023.41406222  .00001954  00000-0  15002-3 0  9992
2 47654  53.0565 353.5451 0001564  71.0557 289.0602 15.06397929 52431
Source of the keplerian elements: AFSPC